Mojave, CA

4:22 PM PST on February 06, 2016 (GMT -0800)
Mojave

Weather History for KMHV - February, 2014

Change the Weather History Date:

Thursday, February 13, 2014

  Actual Average Record
Temperature  
Mean Temperature 67 °F -  
Max Temperature 77 °F 61 °F 77 °F (1977)
Min Temperature 57 °F 36 °F 22 °F (1966)
Cooling Degree Days 2    
Growing Degree Days 17 (Base 50)    
Moisture  
Dew Point 20 °F    
Average Humidity 18    
Maximum Humidity 34    
Minimum Humidity 9    
Precipitation  
Precipitation 0.00 in - - ()
Sea Level Pressure  
Sea Level Pressure 30.12 in    
Wind  
Wind Speed 22 mph (West)    
Max Wind Speed 28 mph    
Max Gust Speed 31 mph    
Visibility 10 miles    
Events      
Averages and records for this station are not official NWS values.
T = Trace of Precipitation, MM = Missing Value Source: NWS Daily Summary

Daily Weather History Graph

Daily Weather History Graph

Search for Another Location

Airport or City:

Trip Planner

Search our weather history database for the weather conditions in past years. The results will help you decide how hot, cold, wet, or windy it might be!

Date:

Astronomy

Feb. 13, 2014 Rise Set
Actual Time 6:40 AM PST 5:33 PM PST
Civil Twilight 6:14 AM PST 5:59 PM PST
Nautical Twilight 5:44 AM PST 6:29 PM PST
Astronomical Twilight 5:15 AM PST 6:58 PM PST
Moon 4:45 PM PST (2/13) 5:36 AM PST (2/13)
Length of Visible Light 11h 44m
Length of Day
10h 52m
Waxing Gibbous, 99% of the Moon is Illuminated
Feb 13
Waxing Gibbous
Feb 14
Full
Feb 22
Last Quarter
Mar 1
New
Mar 8
First Quarter

Hourly Weather History & Observations

Time (PST) Temp. Dew Point Humidity Pressure Visibility Wind Dir Wind Speed Gust Speed Precip Events Conditions
12:15 AM 62.6 °F 10.4 °F 13% 30.12 in 10.0 mi WSW 20.7 mph - N/A   Clear
12:35 AM 64.4 °F 10.4 °F 12% 30.11 in 10.0 mi West 23.0 mph - N/A   Clear
12:55 AM 64.4 °F 12.2 °F 13% 30.11 in 10.0 mi West 26.5 mph - N/A   Clear
1:15 AM 64.4 °F 14.0 °F 14% 30.11 in 10.0 mi West 27.6 mph - N/A   Clear
1:35 AM 64.4 °F 14.0 °F 14% 30.11 in 10.0 mi West 25.3 mph - N/A   Clear
1:55 AM 62.6 °F 14.0 °F 15% 30.11 in 10.0 mi West 23.0 mph - N/A   Clear
2:15 AM 62.6 °F 10.4 °F 13% 30.11 in 10.0 mi WSW 20.7 mph - N/A   Clear
2:35 AM 59.0 °F 12.2 °F 16% 30.12 in 10.0 mi WSW 19.6 mph - N/A   Clear
2:55 AM 62.6 °F 8.6 °F 12% 30.12 in 10.0 mi West 21.9 mph - N/A   Clear
3:15 AM 62.6 °F 12.2 °F 14% 30.11 in 10.0 mi West 21.9 mph - N/A   Clear
3:35 AM 59.0 °F 17.6 °F 20% 30.11 in 10.0 mi WSW 24.2 mph - N/A   Clear
3:55 AM 59.0 °F 17.6 °F 20% 30.11 in 10.0 mi WSW 26.5 mph 31.1 mph N/A   Clear
4:15 AM 59.0 °F 15.8 °F 19% 30.11 in 10.0 mi WSW 26.5 mph 29.9 mph N/A   Clear
4:35 AM 59.0 °F 15.8 °F 19% 30.12 in 10.0 mi WSW 24.2 mph - N/A   Clear
4:55 AM 59.0 °F 15.8 °F 19% 30.12 in 10.0 mi WSW 23.0 mph - N/A   Clear
5:15 AM 59.0 °F 15.8 °F 19% 30.12 in 10.0 mi WSW 23.0 mph 29.9 mph N/A   Clear
5:35 AM 59.0 °F 15.8 °F 19% 30.13 in 10.0 mi West 23.0 mph - N/A   Clear
5:55 AM 57.2 °F 17.6 °F 21% 30.13 in 10.0 mi West 18.4 mph - N/A   Clear
6:15 AM 57.2 °F 17.6 °F 21% 30.14 in 10.0 mi WSW 21.9 mph - N/A   Clear
6:35 AM 57.2 °F 17.6 °F 21% 30.14 in 10.0 mi West 19.6 mph - N/A   Clear
6:55 AM 57.2 °F 17.6 °F 21% 30.14 in 10.0 mi West 19.6 mph - N/A   Clear
7:15 AM 59.0 °F 19.4 °F 22% 30.14 in 10.0 mi West 21.9 mph - N/A   Clear
7:35 AM 59.0 °F 17.6 °F 20% 30.15 in 10.0 mi West 21.9 mph - N/A   Clear
7:55 AM 60.8 °F 19.4 °F 20% 30.15 in 10.0 mi West 20.7 mph - N/A   Clear
8:15 AM 64.4 °F 19.4 °F 18% 30.14 in 10.0 mi WSW 21.9 mph - N/A   Clear
8:35 AM 66.2 °F 21.2 °F 18% 30.15 in 10.0 mi WSW 21.9 mph - N/A   Clear
8:55 AM 68.0 °F 23.0 °F 18% 30.15 in 10.0 mi West 21.9 mph 27.6 mph N/A   Clear
9:15 AM 71.6 °F 23.0 °F 16% 30.14 in 10.0 mi West 23.0 mph - N/A   Clear
9:35 AM 71.6 °F 23.0 °F 16% 30.15 in 10.0 mi West 20.7 mph - N/A   Clear
9:55 AM 73.4 °F 23.0 °F 15% 30.15 in 10.0 mi West 21.9 mph - N/A   Clear
10:15 AM 73.4 °F 23.0 °F 15% 30.15 in 10.0 mi West 21.9 mph - N/A   Clear
10:35 AM 73.4 °F 21.2 °F 14% 30.15 in 10.0 mi West 23.0 mph - N/A   Clear
10:55 AM 75.2 °F 19.4 °F 12% 30.15 in 10.0 mi West 23.0 mph - N/A   Clear
11:35 AM 75.2 °F 19.4 °F 12% 30.13 in 10.0 mi West 25.3 mph - N/A   Clear
11:55 AM 75.2 °F 17.6 °F 11% 30.12 in 10.0 mi West 24.2 mph - N/A   Clear
12:15 PM 77.0 °F 17.6 °F 11% 30.12 in 10.0 mi West 21.9 mph - N/A   Clear
12:35 PM 77.0 °F 15.8 °F 10% 30.11 in 10.0 mi West 18.4 mph - N/A   Clear
12:55 PM 77.0 °F 14.0 °F 9% 30.10 in 10.0 mi West 20.7 mph 25.3 mph N/A   Clear
1:15 PM 77.0 °F 15.8 °F 10% 30.10 in 10.0 mi West 19.6 mph 26.5 mph N/A   Clear
1:35 PM 77.0 °F 17.6 °F 11% 30.09 in 10.0 mi West 17.3 mph 25.3 mph N/A   Clear
1:55 PM 77.0 °F 17.6 °F 11% 30.10 in 10.0 mi West 13.8 mph 24.2 mph N/A   Clear
2:15 PM 77.0 °F 17.6 °F 11% 30.09 in 10.0 mi West 18.4 mph 24.2 mph N/A   Clear
2:35 PM 77.0 °F 17.6 °F 11% 30.09 in 10.0 mi WSW 19.6 mph 23.0 mph N/A   Clear
2:55 PM 77.0 °F 17.6 °F 11% 30.10 in 10.0 mi West 17.3 mph - N/A   Clear
3:15 PM 75.2 °F 17.6 °F 11% 30.10 in 10.0 mi West 20.7 mph 25.3 mph N/A   Clear
3:35 PM 73.4 °F 23.0 °F 15% 30.10 in 10.0 mi West 18.4 mph - N/A   Clear
3:55 PM 71.6 °F 24.8 °F 17% 30.10 in 10.0 mi West 21.9 mph - N/A   Clear
4:15 PM 71.6 °F 24.8 °F 17% 30.10 in 10.0 mi West 21.9 mph - N/A   Clear
4:35 PM 68.0 °F 28.4 °F 23% 30.09 in 10.0 mi West 25.3 mph - N/A   Clear
4:55 PM 68.0 °F 28.4 °F 23% 30.09 in 10.0 mi West 23.0 mph - N/A   Clear
5:15 PM 66.2 °F 26.6 °F 23% 30.09 in 10.0 mi West 19.6 mph - N/A   Clear
5:35 PM 66.2 °F 26.6 °F 23% 30.09 in 10.0 mi West 19.6 mph - N/A   Clear
5:55 PM 64.4 °F 28.4 °F 26% 30.10 in 10.0 mi West 17.3 mph - N/A   Clear
6:15 PM 62.6 °F 28.4 °F 27% 30.11 in 10.0 mi West 18.4 mph - N/A   Clear
6:35 PM 62.6 °F 26.6 °F 26% 30.11 in 10.0 mi West 19.6 mph - N/A   Clear
6:55 PM 62.6 °F 28.4 °F 27% 30.11 in 10.0 mi West 21.9 mph - N/A   Clear
7:15 PM 60.8 °F 28.4 °F 29% 30.11 in 10.0 mi West 24.2 mph - N/A   Clear
7:35 PM 60.8 °F 30.2 °F 31% 30.12 in 10.0 mi West 23.0 mph - N/A   Clear
7:55 PM 59.0 °F 30.2 °F 34% 30.12 in 10.0 mi West 23.0 mph - N/A   Clear
8:15 PM 59.0 °F 28.4 °F 31% 30.12 in 10.0 mi West 23.0 mph - N/A   Clear
8:35 PM 60.8 °F 23.0 °F 23% 30.11 in 10.0 mi West 23.0 mph - N/A   Clear
8:55 PM 62.6 °F 19.4 °F 19% 30.11 in 10.0 mi West 24.2 mph - N/A   Clear
9:15 PM 62.6 °F 21.2 °F 20% 30.11 in 10.0 mi West 25.3 mph - N/A   Clear
9:35 PM 62.6 °F 23.0 °F 22% 30.11 in 10.0 mi West 24.2 mph - N/A   Clear
9:50 PM 62.6 °F 19.4 °F 19% 30.10 in 10.0 mi West 24.2 mph - N/A   Clear
10:15 PM 62.6 °F 19.4 °F 19% 30.10 in 10.0 mi West 23.0 mph - N/A   Clear
10:35 PM 62.6 °F 19.4 °F 19% 30.10 in 10.0 mi West 21.9 mph - N/A   Unknown
10:55 PM 62.6 °F 19.4 °F 19% 30.10 in 10.0 mi West 21.9 mph - N/A   Unknown
11:15 PM 62.6 °F 19.4 °F 19% 30.10 in 10.0 mi West 23.0 mph 28.8 mph N/A   Clear
11:35 PM 62.6 °F 19.4 °F 19% 30.10 in 10.0 mi West 23.0 mph 27.6 mph N/A   Clear
11:55 PM 62.6 °F 19.4 °F 19% 30.09 in 10.0 mi West 24.2 mph - N/A   Clear